Weather History for Nashville, TN

Change the Weather History Date:

Monday, April 14, 2014

  Actual Average Record
Temperature  
Mean Temperature 59 °F 59 °F  
Max Temperature 74 °F 70 °F 88 °F (1883)
Min Temperature 44 °F 47 °F 25 °F (1950)
Degree Days  
Heating Degree Days 6 8  
Month to date heating degree days 71 130  
Since 1 July heating degree days 3798 3541  
Cooling Degree Days 0 1  
Month to date cooling degree days 24 14  
Year to date cooling degree days 24 22  
Growing Degree Days 7 (Base 50)    
Moisture  
Dew Point 54 °F    
Average Humidity 73    
Maximum Humidity 96    
Minimum Humidity 49    
Precipitation  
Precipitation 0.34 in 0.12 in 1.95 in (1893)
Month to date precipitation 2.55 1.69  
Year to date precipitation 14.61 13.49  
Snow  
Snow 0.00 in 0.00 in 0.00 in (2002)
Month to date snowfall 0.0 0.1  
Since 1 July snowfall 1.6 6.4  
Snow Depth 0.00 in    
Sea Level Pressure  
Sea Level Pressure 29.79 in    
Wind  
Wind Speed 15 mph (WSW)    
Max Wind Speed 24 mph    
Max Gust Speed 35 mph    
Visibility 9 miles    
Events Rain    
T = Trace of Precipitation, MM = Missing Value Source: NWS Daily Summary

Daily Weather History Graph

Daily Weather History Graph

Search for Another Location

Airport:

Trip Planner

Search our weather history database for the weather conditions in past years. The results will help you decide how hot, cold, wet, or windy it might be!

Date:

Astronomy

Apr. 14, 2014 Rise Set
Actual Time 6:14 AM CDT 7:19 PM CDT
Civil Twilight 5:48 AM CDT 7:46 PM CDT
Nautical Twilight 5:17 AM CDT 8:17 PM CDT
Astronomical Twilight 4:44 AM CDT 8:50 PM CDT
Moon 6:58 PM CDT (4/14) 5:45 AM CDT (4/14)
Length of Visible Light 13h 57m
Length of Day
13h 04m
Full, 100% of the Moon is Illuminated
Apr 14
Full
Apr 15
Full
Apr 22
Last Quarter
Apr 29
New
May 6
First Quarter

Hourly Weather History & Observations

Time (CDT) Temp. Windchill Dew Point Humidity Pressure Visibility Wind Dir Wind Speed Gust Speed Precip Events Conditions
12:53 AM 73.0 °F - 53.1 °F 49% 29.77 in 10.0 mi South 17.3 mph 25.3 mph N/A   Overcast
1:53 AM 73.4 °F - 53.6 °F 50% 29.81 in 10.0 mi SSW 16.1 mph 29.9 mph N/A   Overcast
2:53 AM 68.0 °F - 57.9 °F 70% 29.76 in 10.0 mi South 11.5 mph 21.9 mph 0.00 in   Overcast
3:53 AM 68.0 °F - 57.0 °F 68% 29.75 in 10.0 mi South 11.5 mph - 0.00 in Rain Light Rain
4:53 AM 70.0 °F - 55.0 °F 59% 29.74 in 10.0 mi South 19.6 mph 27.6 mph 0.00 in   Overcast
5:53 AM 64.4 °F - 57.2 °F 77% 29.79 in 10.0 mi SSW 17.3 mph 29.9 mph N/A Rain Light Rain
6:16 AM 62.6 °F - 57.2 °F 82% 29.80 in 10.0 mi South 23.0 mph 34.5 mph 0.02 in Rain Light Rain
6:53 AM 62.6 °F - 57.2 °F 82% 29.78 in 10.0 mi South 27.6 mph 38.0 mph N/A Rain Light Rain
7:53 AM 62.1 °F - 55.9 °F 80% 29.78 in 10.0 mi South 23.0 mph 31.1 mph 0.00 in   Overcast
8:53 AM 64.0 °F - 55.9 °F 75% 29.81 in 10.0 mi South 16.1 mph 23.0 mph N/A   Overcast
9:53 AM 66.0 °F - 57.0 °F 73% 29.81 in 10.0 mi SSW 24.2 mph 27.6 mph N/A   Overcast
10:53 AM 66.9 °F - 57.9 °F 73% 29.84 in 10.0 mi SSW 13.8 mph 20.7 mph N/A   Overcast
11:53 AM 68.0 °F - 57.9 °F 70% 29.83 in 10.0 mi SSW 17.3 mph 24.2 mph N/A   Overcast
12:53 PM 69.1 °F - 57.0 °F 65% 29.81 in 10.0 mi SW 12.7 mph 26.5 mph N/A   Overcast
1:53 PM 69.1 °F - 57.9 °F 68% 29.79 in 10.0 mi South 15.0 mph - N/A   Overcast
2:53 PM 70.0 °F - 57.0 °F 63% 29.76 in 10.0 mi South 15.0 mph 18.4 mph N/A   Overcast
3:02 PM 69.8 °F - 57.2 °F 64% 29.77 in 10.0 mi SSW 15.0 mph - N/A   Overcast
3:53 PM 69.8 °F - 57.2 °F 64% 29.74 in 10.0 mi South 15.0 mph - N/A   Overcast
4:53 PM 69.1 °F - 55.9 °F 63% 29.72 in 10.0 mi SSW 16.1 mph 20.7 mph N/A   Overcast
5:53 PM 68.0 °F - 57.0 °F 68% 29.73 in 10.0 mi SSW 10.4 mph - N/A   Overcast
6:03 PM 68.0 °F - 57.2 °F 68% 29.75 in 10.0 mi SW 10.4 mph 16.1 mph N/A   Overcast
6:16 PM 66.2 °F - 57.2 °F 73% 29.75 in 6.0 mi SSW 8.1 mph - 0.01 in Rain Rain
6:41 PM 62.6 °F - 59.0 °F 88% 29.76 in 2.5 mi West 9.2 mph - 0.07 in Rain Heavy Rain
6:45 PM 62.6 °F - 60.8 °F 94% 29.76 in 4.0 mi West 9.2 mph - 0.08 in Rain Rain
6:53 PM 63.0 °F - 60.1 °F 90% 29.75 in 8.0 mi West 6.9 mph - 0.09 in Rain Light Rain
7:10 PM 62.6 °F - 60.8 °F 94% 29.74 in 10.0 mi NW 6.9 mph - 0.00 in   Overcast
7:26 PM 62.6 °F - 60.8 °F 94% 29.77 in 10.0 mi WSW 5.8 mph - 0.00 in Rain Light Rain
7:34 PM 60.8 °F - 57.2 °F 88% 29.77 in 10.0 mi NW 13.8 mph 19.6 mph 0.00 in Rain Light Rain
7:51 PM 57.2 °F - 55.4 °F 94% 29.78 in 10.0 mi NW 12.7 mph 19.6 mph 0.00 in Rain Light Rain
7:53 PM 57.0 °F - 55.0 °F 93% 29.78 in 10.0 mi NW 12.7 mph 19.6 mph 0.00 in Rain Light Rain
8:04 PM 55.4 °F - 53.6 °F 94% 29.80 in 10.0 mi NNW 17.3 mph 23.0 mph 0.00 in   Overcast
8:35 PM 53.6 °F - 50.0 °F 88% 29.80 in 10.0 mi North 10.4 mph 21.9 mph 0.02 in Rain Light Rain
8:43 PM 53.6 °F - 50.0 °F 88% 29.81 in 7.0 mi NNW 10.4 mph - 0.04 in Rain Rain
8:53 PM 52.0 °F - 50.0 °F 93% 29.80 in 6.0 mi NNW 6.9 mph - 0.07 in Rain Rain
9:02 PM 51.8 °F - 50.0 °F 94% 29.81 in 8.0 mi NNW 8.1 mph - 0.01 in Rain Light Rain
9:16 PM 51.8 °F - 48.2 °F 88% 29.82 in 10.0 mi NW 10.4 mph - 0.03 in Rain Light Rain
9:53 PM 48.9 °F - 46.9 °F 93% 29.85 in 10.0 mi NW 13.8 mph 25.3 mph 0.06 in   Overcast
10:04 PM 48.2 °F - 46.4 °F 93% 29.85 in 10.0 mi NNW 12.7 mph - 0.00 in Rain Light Rain
10:27 PM 48.2 °F - 44.6 °F 87% 29.87 in 5.0 mi WNW 12.7 mph 24.2 mph 0.01 in Rain Light Rain
10:53 PM 46.0 °F 38.8 °F 44.1 °F 93% 29.87 in 5.0 mi NW 18.4 mph 24.2 mph 0.03 in Rain Light Rain
11:01 PM 46.4 °F 39.5 °F 44.6 °F 93% 29.87 in 6.0 mi NW 17.3 mph 24.2 mph 0.01 in Rain Light Rain
11:23 PM 46.4 °F 40.4 °F 42.8 °F 87% 29.87 in 10.0 mi NNW 13.8 mph 20.7 mph 0.03 in Rain Light Rain
11:39 PM 44.6 °F 37.4 °F 42.8 °F 93% 29.88 in 10.0 mi NNW 16.1 mph 23.0 mph 0.03 in Rain Light Rain
11:53 PM 45.0 °F 38.5 °F 42.1 °F 90% 29.88 in 10.0 mi NNW 13.8 mph 20.7 mph 0.03 in Rain Light Rain